User: anonymous   Login
Location: Oak Glen
(34.0495°N, 116.9470°E)
Time: 05:17:41
(UTC-07:00)
Language:

BUGSAT 1 - Orbit

View from above orbital plane
View from above orbital plane
View from above satellite
View from above satellite

Ground track
Ground track

The orbit data is extracted from the following two-line orbital elements,

1 40014U 14033E   19082.11127706 -.00000116  00000-0 -47289-5 0  9990
2 40014  98.0054  27.7448 0031881 353.2941   6.7857 14.95216258259414
Epoch (UTC): 23 March 2019 02:40:14
Eccentricity: 0.0031881
inclination: 98.0054°
perigee height: 559 km
apogee height: 604 km
right ascension of ascending node: 27.7448°
argument of perigee: 353.2941°
revolutions per day: 14.95216258
mean anomaly at epoch: 6.7857°
orbit number at epoch: 25941

The dashed part of the orbit path shows where the satellite is in the earth's shadow,  

DLR